[[{"header":{"parameterUnit":"m.s-1","parameterCategory":1,"la1":30.2991,"la2":30.254,"lo1":-89.0895,"lo2":-89.0444,"dy":0.0017,"dx":0.0017,"nx":28,"ny":28,"refTime":"2025-03-27T09:00:00:Z","depth":0,"parameterNumber":2,"parameterNumberName":"U-component_of_WINDS"},"data":[0,0,0,0,0,0,0,0,0,0,0,0,0,0,0,0,0,0,0,0,0,0,0,0,0,0,0,0,0,0,0,0,0,0,0,0,0,0,0,0,0,0,0,0,0,0,0,0,0,0,0,0,0,0,0,0,0,0,-6.3837,-6.3838,0,-6.4,-6.4001,-6.4003,-6.4,-6.3998,-6.3996,-6.3994,-6.416,-6.4166,-6.4172,0,0,0,0,0,0,0,0,0,0,0,0,0,-6.3524,-6.3529,-6.3836,-6.3838,-6.3841,-6.3999,-6.4002,-6.4004,-6.4001,-6.3998,-6.3995,-6.3993,-6.4158,-6.4165,-6.4173,0,0,0,0,0,0,0,0,0,0,0,0,0,-6.367,-6.3531,-6.3836,-6.3858,-6.3862,-6.3999,-6.4002,-6.4004,-6.4001,-6.3998,-6.3995,-6.3992,-6.4155,-6.4164,-6.4174,-6.4299,0,0,-6.4204,-6.4208,0,0,0,0,0,0,0,0,-6.3662,-6.3682,-6.3853,-6.3857,-6.3861,-6.3976,-6.3952,-6.4103,-6.4002,-6.3948,-6.3994,-6.399,-6.4101,-6.4115,-6.4153,-6.4307,-6.4314,-6.4204,-6.421,-6.4214,-6.4217,0,0,0,0,0,0,0,-6.3652,-6.3675,-6.3901,-6.3855,-6.3861,-6.386,-6.3878,-6.3981,-6.4041,-6.3953,-6.3953,-6.3972,-6.4103,-6.4144,-6.4157,-6.4317,-6.4204,-6.4213,-6.4219,-6.4223,-6.4584,-6.4587,0,0,0,0,0,0,-6.3637,-6.3666,-6.3896,-6.3906,-6.3752,-6.3869,-6.3888,-6.3943,-6.404,-6.4052,-6.3975,-6.3972,-6.4129,-6.4145,-6.4163,-6.4315,-6.4214,-6.4223,-6.4229,-6.458,-6.4585,-6.4589,0,0,0,0,0,0,-6.363,-6.3658,-6.3889,-6.3786,-6.3816,-6.3878,-6.3939,-6.3948,-6.3988,-6.4057,-6.4068,-6.4005,-6.4127,-6.4149,-6.4266,-6.4321,-6.4228,-6.4237,-6.4575,-6.4581,-6.4587,-6.4622,0,0,0,0,0,0,-6.3621,-6.3655,-6.3703,-6.3787,-6.3821,-6.3989,-6.3943,-6.3953,-6.4005,-6.4002,-6.4088,-6.4099,-6.4126,-6.4251,-6.4275,-6.4333,-6.4244,-6.4571,-6.4578,-6.4585,-6.4616,-6.4628,-6.4638,0,0,0,0,0,-6.361,-6.3706,-6.3705,-6.3733,-6.3882,-6.3992,-6.4012,-6.4041,-6.4009,-6.4058,-6.4103,-6.4096,-6.4312,-6.4263,-6.429,-6.4351,-6.4567,-6.4576,-6.4584,-6.4611,-6.4626,-6.4638,0,0,0,0,0,0,-6.3625,-6.3717,-6.3717,-6.3843,-6.391,-6.3991,-6.4053,-6.4055,-6.4132,-6.4126,-6.4159,-6.4178,-6.4295,-6.4336,-6.428,-6.4479,-6.4436,-6.445,-6.4447,-6.4462,-6.4473,-6.4458,-6.4252,0,0,0,0,0,-6.3643,-6.3725,-6.3801,-6.3905,-6.3939,-6.3991,-6.404,-6.4057,-6.4127,-6.4155,-6.4208,-6.4276,-6.436,-6.4414,-6.4494,-6.4624,-6.4642,-6.468,-6.4691,-6.47,-6.471,-6.4782,-6.4799,-6.4617,-6.4617,-6.4616,0,0,-6.368,-6.3741,-6.379,-6.3909,-6.3963,-6.4047,-6.4014,-6.4104,-6.4166,-6.4168,-6.4281,-6.4324,-6.4403,-6.4526,-6.4583,-6.4564,-6.4766,-6.471,-6.4717,-6.4723,-6.4793,-6.481,-6.4825,-6.4622,-6.4621,-6.462,0,0,-6.379,-6.3846,-6.3938,-6.3993,-6.4076,-6.411,-6.4133,-6.4215,-6.4243,-6.4358,-6.4362,-6.4438,-6.458,-6.4636,-6.4683,-6.482,-6.4817,-6.4846,-6.4903,-6.4972,-6.4987,-6.4999,-6.5047,-6.5063,-6.4857,-6.4857,-6.4858,0,-6.3826,-6.3952,-6.3985,-6.4075,-6.4128,-6.4136,-6.423,-6.4282,-6.4387,-6.4423,-6.44,-6.4581,-6.4634,-6.4771,-6.4805,-6.4844,-6.487,-6.4834,-6.4982,-6.4995,-6.5008,-6.5053,-6.5071,-6.486,-6.486,-6.486,-6.4859,0,-6.3991,-6.408,-6.4145,-6.4246,-6.4306,-6.4398,-6.4445,-6.4502,-6.4516,-6.4553,-6.4671,-6.4737,-6.4831,-6.4866,-6.4879,-6.5005,-6.499,-6.4975,-6.4932,-6.5027,-6.507,-6.5088,-6.4864,-6.4863,-6.4862,-6.4862,0,0,-6.411,-6.4232,-6.4254,-6.4301,-6.4395,-6.4463,-6.4557,-6.465,-6.4698,-6.4772,-6.485,-6.4973,-6.496,-6.5014,-6.5035,-6.5097,-6.5199,-6.5074,-6.5076,-6.5092,-6.5342,-6.535,-6.5369,-6.52,-6.5204,-6.5206,-6.5334,0,-6.4228,-6.4393,-6.4427,-6.457,-6.4652,-6.4663,-6.4745,-6.4812,-6.485,-6.4926,-6.4969,-6.5055,-6.5032,-6.5065,-6.5127,-6.5173,-6.5249,-6.5165,-6.5272,-6.5275,-6.5248,-6.5392,-6.5401,-6.5518,-6.5351,-6.5354,-6.5356,0,-6.4387,-6.4465,-6.4616,-6.4701,-6.4736,-6.4808,-6.4897,-6.497,-6.5047,-6.5071,-6.5133,-6.5148,-6.5246,-6.5202,-6.5338,-6.528,-6.5327,-6.5357,-6.5363,-6.537,-6.5318,-6.5401,-6.5556,-6.5573,-6.5384,-6.5381,-6.538,0,-6.4455,-6.4599,-6.4708,-6.4748,-6.485,-6.49,-6.4945,-6.5019,-6.5074,-6.5152,-6.5188,-6.5277,-6.5325,-6.5394,-6.5433,-6.5398,-6.5566,-6.5525,-6.5588,-6.5587,-6.5619,-6.5615,-6.578,-6.5655,-6.5655,-6.5654,-6.5654,0,-6.4581,-6.4673,-6.474,-6.4807,-6.491,-6.495,-6.5051,-6.5096,-6.5162,-6.5238,-6.5255,-6.5326,-6.5375,-6.5454,-6.5486,-6.5593,-6.5615,-6.5637,-6.5643,-6.5633,-6.563,-6.5661,-6.5652,-6.5659,-6.5658,-6.5657,-6.5656,0,-6.4673,-6.4722,-6.4841,-6.493,-6.4954,-6.5026,-6.5102,-6.5167,-6.5208,-6.5304,-6.5329,-6.5393,-6.5487,-6.5534,-6.565,-6.5672,-6.5792,-6.5795,-6.5765,-6.5767,-6.5826,-6.5819,-6.6014,-6.6041,-6.59,-6.5902,-6.5903,0,-6.4748,-6.4819,-6.4916,-6.4968,-6.5014,-6.5098,-6.5155,-6.5198,-6.5256,-6.5351,-6.5405,-6.55,-6.5577,-6.5726,-6.5783,-6.5873,-6.5876,-6.5939,-6.5889,-6.5877,-6.5874,-6.5868,-6.5875,-6.5946,-6.5947,-6.5948,-6.5949,0,-6.4876,-6.4898,-6.4978,-6.5068,-6.5135,-6.5207,-6.5279,-6.5321,-6.5376,-6.5441,-6.5537,-6.5597,-6.5717,-6.5811,-6.5905,-6.5952,-6.596,-6.5965,-6.5984,-6.5972,-6.5951,-6.5961,-6.5786,-6.5959,-6.5958,-6.5957,-6.5957,-6.5956,-6.496,-6.5024,-6.5102,-6.5192,-6.5251,-6.5318,-6.5384,-6.5435,-6.5515,-6.5616,-6.5638,-6.5739,-6.5817,-6.5945,-6.5995,-6.6076,-6.6062,-6.609,-6.6096,-6.6101,-6.6103,-6.5942,-6.6094,-6.6093,-6.6093,-6.6093,-6.6093,0,-6.5087,-6.5139,-6.5221,-6.5321,-6.5392,-6.5396,-6.5476,-6.5535,-6.5624,-6.5696,-6.5773,-6.5884,-6.5976,-6.6042,-6.6136,-6.6188,-6.6193,-6.621,-6.6205,-6.6216,-6.6111,-6.6084,-6.6204,-6.6204,-6.6204,-6.6204,-6.6204,-6.6204,-6.5161,-6.5268,-6.53,-6.5438,-6.5489,-6.5589,-6.5634,-6.5697,-6.5755,-6.5878,-6.5955,-6.5998,-6.6068,-6.6167,-6.6252,-6.6269,-6.6302,-6.6318,-6.6335,-6.6235,-6.6223,-6.6212,-6.6186,-6.6326,-6.6326,-6.6433,-6.6434,-6.6435]},{"header":{"parameterUnit":"m.s-1","parameterCategory":1,"la1":30.2991,"la2":30.254,"lo1":-89.0895,"lo2":-89.0444,"dy":0.0017,"dx":0.0017,"nx":28,"ny":28,"refTime":"2025-03-27T09:00:00:Z","depth":0,"parameterNumber":3,"parameterNumberName":"V-component_of_WINDS"},"data":[0,0,0,0,0,0,0,0,0,0,0,0,0,0,0,0,0,0,0,0,0,0,0,0,0,0,0,0,0,0,0,0,0,0,0,0,0,0,0,0,0,0,0,0,0,0,0,0,0,0,0,0,0,0,0,0,0,0,4.8302,4.8303,0,4.8396,4.8397,4.8398,4.8387,4.8385,4.8384,4.8382,4.8474,4.8478,4.8482,0,0,0,0,0,0,0,0,0,0,0,0,0,4.8111,4.8115,4.8302,4.8303,4.8304,4.8396,4.8397,4.8399,4.8387,4.8385,4.8383,4.8382,4.8473,4.8478,4.8482,0,0,0,0,0,0,0,0,0,0,0,0,0,4.8198,4.8116,4.8302,4.831,4.8311,4.8396,4.8397,4.8399,4.8387,4.8385,4.8383,4.8381,4.8471,4.8477,4.8483,4.8564,0,0,4.85,4.8503,0,0,0,0,0,0,0,0,4.8193,4.8205,4.8307,4.8309,4.8311,4.8378,4.8364,4.8454,4.8388,4.8358,4.8382,4.838,4.8444,4.8452,4.8474,4.8568,4.8572,4.8501,4.8504,4.8507,4.8509,0,0,0,0,0,0,0,4.8187,4.8201,4.8339,4.8309,4.8311,4.8308,4.8318,4.8381,4.8412,4.8361,4.836,4.8372,4.8444,4.8468,4.8476,4.8573,4.8501,4.8506,4.851,4.8512,4.8742,4.8745,0,0,0,0,0,0,4.818,4.8196,4.8336,4.8342,4.8246,4.8314,4.8325,4.8358,4.8412,4.8418,4.8374,4.8371,4.846,4.8469,4.8479,4.858,4.8507,4.8512,4.8516,4.874,4.8743,4.8746,0,0,0,0,0,0,4.8176,4.8192,4.8332,4.8269,4.8287,4.8319,4.8357,4.8361,4.8386,4.8421,4.8427,4.8393,4.8458,4.8471,4.8544,4.8582,4.8515,4.852,4.8737,4.8741,4.8744,4.878,0,0,0,0,0,0,4.817,4.8191,4.8222,4.827,4.829,4.8396,4.836,4.8365,4.8396,4.8394,4.8441,4.8446,4.8457,4.8535,4.855,4.8589,4.8525,4.8733,4.8738,4.8743,4.8775,4.8784,4.8792,0,0,0,0,0,4.8163,4.8226,4.8224,4.824,4.833,4.8398,4.8409,4.8422,4.8399,4.8431,4.8455,4.8445,4.8576,4.8543,4.8559,4.8601,4.8731,4.8737,4.8743,4.8771,4.8782,4.8792,0,0,0,0,0,0,4.8179,4.8233,4.823,4.8311,4.835,4.8396,4.8436,4.8433,4.8479,4.8474,4.8487,4.8498,4.8572,4.8594,4.8556,4.8684,4.865,4.866,4.8667,4.8678,4.8686,4.8679,4.853,0,0,0,0,0,4.8193,4.8245,4.8288,4.8355,4.8375,4.8403,4.8432,4.844,4.848,4.8497,4.8525,4.8564,4.8615,4.8647,4.8696,4.8779,4.879,4.8816,4.8824,4.8831,4.8839,4.8887,4.8899,4.8765,4.8765,4.8765,0,0,4.822,4.8255,4.8287,4.8359,4.8391,4.8444,4.8416,4.8473,4.8513,4.8505,4.8576,4.8599,4.8644,4.8723,4.8759,4.8743,4.8879,4.8839,4.8844,4.8848,4.8894,4.8907,4.8918,4.8769,4.8769,4.8768,0,0,4.8297,4.8329,4.8389,4.8423,4.8472,4.849,4.8505,4.8552,4.8568,4.8641,4.8637,4.8684,4.877,4.8803,4.8831,4.8926,4.8919,4.8941,4.8985,4.9031,4.9042,4.9051,4.9086,4.9099,4.8949,4.8949,4.8949,0,4.8323,4.8404,4.842,4.8479,4.8511,4.851,4.8572,4.8603,4.8664,4.8687,4.8669,4.878,4.8809,4.8898,4.8921,4.8944,4.8961,4.8935,4.904,4.9049,4.9058,4.9091,4.9104,4.8951,4.8951,4.8951,4.895,0,4.8436,4.8493,4.8536,4.8599,4.8636,4.8696,4.8721,4.8757,4.8762,4.8783,4.8858,4.8894,4.8951,4.8973,4.8977,4.9063,4.9052,4.9037,4.9003,4.9073,4.9105,4.9118,4.8955,4.8954,4.8953,4.8952,0,0,4.8522,4.8596,4.8612,4.8642,4.8698,4.8742,4.8803,4.8861,4.8892,4.8936,4.8987,4.9063,4.9051,4.9083,4.9091,4.9132,4.9207,4.9112,4.9114,4.9129,4.9305,4.9316,4.9331,4.9204,4.9206,4.9208,4.9302,0,4.8605,4.8714,4.8732,4.8827,4.888,4.8882,4.8935,4.8976,4.8998,4.9046,4.9069,4.9123,4.9102,4.9122,4.9163,4.9189,4.9242,4.9182,4.9251,4.9254,4.924,4.9347,4.9358,4.9445,4.9314,4.9316,4.9318,0,4.8715,4.8765,4.8867,4.8919,4.8942,4.899,4.9046,4.9093,4.9139,4.9152,4.9191,4.9195,4.9259,4.9225,4.9313,4.9272,4.9302,4.9319,4.9323,4.9329,4.9289,4.9356,4.9472,4.9485,4.9337,4.9336,4.9334,0,4.8769,4.8862,4.8935,4.896,4.9023,4.9057,4.9085,4.9129,4.9164,4.9214,4.9237,4.9292,4.9322,4.9365,4.9385,4.9358,4.9473,4.9439,4.9486,4.9485,4.9508,4.9506,4.9631,4.9528,4.9528,4.9528,4.9527,0,4.8859,4.8921,4.8961,4.9006,4.9076,4.9097,4.9166,4.9192,4.9233,4.9284,4.9288,4.9335,4.9359,4.9409,4.9425,4.9497,4.9511,4.9523,4.9527,4.9523,4.9521,4.9541,4.9536,4.9531,4.953,4.953,4.9529,0,4.893,4.8959,4.904,4.9094,4.911,4.9159,4.9206,4.925,4.9273,4.9337,4.9353,4.9389,4.945,4.9475,4.9548,4.9559,4.9642,4.9641,4.9627,4.9628,4.9673,4.9669,4.9815,4.9835,4.9719,4.972,4.9721,0,4.8986,4.9035,4.9096,4.9131,4.916,4.9216,4.9253,4.9276,4.9314,4.9374,4.9411,4.9473,4.9523,4.962,4.9652,4.9709,4.9709,4.9757,4.9717,4.9713,4.9711,4.9707,4.9713,4.9763,4.9764,4.9765,4.9766,0,4.9082,4.9095,4.9148,4.9209,4.9253,4.9301,4.9347,4.9375,4.9406,4.9449,4.9512,4.9551,4.9629,4.969,4.9749,4.9777,4.9777,4.9779,4.9792,4.9789,4.9779,4.9786,4.9646,4.9775,4.9774,4.9773,4.9773,4.9772,4.9147,4.9192,4.9243,4.9303,4.9342,4.9386,4.9431,4.9462,4.9516,4.9582,4.9592,4.966,4.9709,4.9789,4.982,4.9874,4.9862,4.9881,4.9886,4.9891,4.9894,4.9771,4.9885,4.9884,4.9884,4.9884,4.9884,0,4.9244,4.9278,4.9334,4.9401,4.9449,4.9447,4.95,4.954,4.96,4.9646,4.9697,4.9771,4.9832,4.9871,4.9932,4.9967,4.9969,4.9982,4.998,4.9987,4.9901,4.9884,4.998,4.998,4.998,4.998,4.998,4.998,4.93,4.9376,4.9396,4.9491,4.9525,4.9593,4.9623,4.9665,4.9702,4.9785,4.9837,4.9862,4.9906,4.9971,5.0027,5.0037,5.0059,5.0074,5.0083,5.0002,4.9992,4.9983,4.9966,5.0078,5.0079,5.0164,5.0164,5.0165]}]]